Zurück zum Katalog

STARLINK-36277

AktivKommunikationSSO
NORAD 68305·PAYLOAD·🇺🇸 United States

Gestartet Mar 20, 2026 von Vandenberg Space Force Base

Loading…

Nächste Überflüge (nächste 24 Stunden)

TLE

AktuellSource: CelesTrak SupGP

Epoche: Sep 14, 2026, 23:12 UTC

1 68305C 26057M   26257.96715278 -.00042833  00000+0 -13293-2 0  2577
2 68305  97.2854  22.4474 0001039 104.8138 140.4048 15.33468336    14

Verfolge STARLINK-36277 in Echtzeit mit AllMySat

Download on the App Store